Time,TemperatureF,DewpointF,PressureIn,WindDirection,WindDirectionDegrees,WindSpeedMPH,WindSpeedGustMPH,Humidity,HourlyPrecipIn,Conditions,Clouds,dailyrainin,SoftwareType,DateUTC
2013-03-01 00:00:00,30.0,28.2,29.79,WNW,302,5.0,12.0,93,0.00,,---,0.00,VWS V13.01,2013-03-01 05:00:00,
2013-03-01 00:01:00,30.0,28.2,29.79,WNW,302,5.0,7.0,93,0.00,,---,0.00,VWS V13.01,2013-03-01 05:01:00,
2013-03-01 00:06:00,29.9,28.1,29.79,WNW,298,9.0,11.0,93,0.00,,---,0.00,VWS V13.01,2013-03-01 05:06:00,
2013-03-01 00:07:00,29.9,28.1,29.79,WNW,297,5.0,11.0,93,0.00,,---,0.00,VWS V13.01,2013-03-01 05:07:00,
2013-03-01 00:12:00,29.9,27.9,29.79,WNW,298,9.0,11.0,92,0.00,,---,0.00,VWS V13.01,2013-03-01 05:12:00,
2013-03-01 00:17:00,29.8,27.8,29.79,WNW,294,10.0,13.0,92,0.00,,---,0.00,VWS V13.01,2013-03-01 05:17:00,
2013-03-01 00:22:00,29.8,27.5,29.80,North,5,3.0,13.0,91,0.00,,---,0.00,VWS V13.01,2013-03-01 05:22:00,
2013-03-01 00:28:00,29.8,27.5,29.80,NNW,342,0.0,13.0,91,0.00,,---,0.00,VWS V13.01,2013-03-01 05:28:00,
2013-03-01 00:33:00,29.7,27.4,29.80,NNW,347,8.0,15.0,91,0.00,,---,0.00,VWS V13.01,2013-03-01 05:33:00,
2013-03-01 00:38:00,29.7,27.1,29.80,NW,314,8.0,15.0,90,0.00,,---,0.00,VWS V13.01,2013-03-01 05:38:00,
2013-03-01 00:43:00,29.6,27.0,29.81,WNW,296,0.0,15.0,90,0.00,,---,0.00,VWS V13.01,2013-03-01 05:43:00,
2013-03-01 00:48:00,29.6,27.0,29.80,WNW,300,0.0,15.0,90,0.00,,---,0.00,VWS V13.01,2013-03-01 05:48:00,
2013-03-01 00:53:00,29.6,27.0,29.81,NNW,327,0.0,15.0,90,0.00,,---,0.00,VWS V13.01,2013-03-01 05:53:00,
2013-03-01 00:58:00,29.6,27.0,29.81,NNW,338,3.0,15.0,90,0.00,,---,0.00,VWS V13.01,2013-03-01 05:58:00,
2013-03-01 01:03:00,29.5,26.9,29.81,NW,317,4.0,6.0,90,0.00,,---,0.00,VWS V13.01,2013-03-01 06:03:00,
2013-03-01 01:08:00,29.4,26.8,29.81,WNW,296,7.0,8.0,90,0.00,,---,0.00,VWS V13.01,2013-03-01 06:08:00,
2013-03-01 01:13:00,29.4,26.8,29.81,NW,315,6.0,12.0,90,0.00,,---,0.00,VWS V13.01,2013-03-01 06:13:00,
2013-03-01 01:18:00,29.3,26.7,29.82,NW,311,6.0,13.0,90,0.00,,---,0.00,VWS V13.01,2013-03-01 06:18:00,
2013-03-01 01:23:00,29.2,26.6,29.82,NW,326,6.0,13.0,90,0.00,,---,0.00,VWS V13.01,2013-03-01 06:23:00,
2013-03-01 01:29:00,29.1,26.5,29.82,NNW,333,5.0,13.0,90,0.00,,---,0.00,VWS V13.01,2013-03-01 06:29:00,
2013-03-01 01:34:00,29.1,26.5,29.82,NW,304,6.0,8.0,90,0.00,,---,0.00,VWS V13.01,2013-03-01 06:34:00,
2013-03-01 01:39:00,29.0,26.4,29.82,WNW,297,11.0,11.0,90,0.00,,---,0.00,VWS V13.01,2013-03-01 06:39:00,
2013-03-01 01:44:00,28.9,26.3,29.82,WNW,300,8.0,12.0,90,0.00,,---,0.00,VWS V13.01,2013-03-01 06:44:00,
2013-03-01 01:49:00,28.9,26.3,29.82,WNW,300,6.0,12.0,90,0.00,,---,0.00,VWS V13.01,2013-03-01 06:49:00,
2013-03-01 01:54:00,28.9,26.3,29.82,WNW,292,7.0,12.0,90,0.00,,---,0.00,VWS V13.01,2013-03-01 06:54:00,
2013-03-01 01:59:00,28.8,26.2,29.82,WNW,295,7.0,12.0,90,0.00,,---,0.00,VWS V13.01,2013-03-01 06:59:00,
2013-03-01 02:04:00,28.8,26.2,29.82,WNW,296,5.0,12.0,90,0.00,,---,0.00,VWS V13.01,2013-03-01 07:04:00,
2013-03-01 02:09:00,28.8,26.2,29.82,NW,321,6.0,12.0,90,0.00,,---,0.00,VWS V13.01,2013-03-01 07:09:00,
2013-03-01 02:14:00,28.8,26.2,29.82,NW,319,7.0,12.0,90,0.00,,---,0.00,VWS V13.01,2013-03-01 07:14:00,
2013-03-01 02:19:00,28.7,26.1,29.82,NW,322,8.0,12.0,90,0.00,,---,0.00,VWS V13.01,2013-03-01 07:19:00,
2013-03-01 02:25:00,28.7,26.1,29.83,WNW,298,5.0,12.0,90,0.00,,---,0.00,VWS V13.01,2013-03-01 07:25:00,
2013-03-01 02:30:00,28.6,26.0,29.83,NW,304,5.0,12.0,90,0.00,,---,0.00,VWS V13.01,2013-03-01 07:30:00,
2013-03-01 02:35:00,28.6,26.0,29.83,NW,304,5.0,7.0,90,0.00,,---,0.00,VWS V13.01,2013-03-01 07:35:00,
2013-03-01 02:40:00,28.6,26.0,29.83,WNW,299,7.0,11.0,90,0.00,,---,0.00,VWS V13.01,2013-03-01 07:40:00,
2013-03-01 02:45:00,28.5,26.0,29.83,WNW,298,5.0,11.0,90,0.00,,---,0.00,VWS V13.01,2013-03-01 07:45:00,
2013-03-01 02:50:00,28.4,25.9,29.83,NW,313,8.0,11.0,90,0.00,,---,0.00,VWS V13.01,2013-03-01 07:50:00,
2013-03-01 02:55:00,28.5,26.0,29.84,NW,308,6.0,11.0,90,0.00,,---,0.00,VWS V13.01,2013-03-01 07:55:00,
2013-03-01 03:01:00,28.4,26.1,29.84,NW,306,5.0,7.0,91,0.00,,---,0.00,VWS V13.01,2013-03-01 08:01:00,
2013-03-01 03:06:00,28.4,26.1,29.84,NW,326,2.0,8.0,91,0.00,,---,0.00,VWS V13.01,2013-03-01 08:06:00,
2013-03-01 03:11:00,28.4,26.1,29.84,NW,326,5.0,8.0,91,0.00,,---,0.00,VWS V13.01,2013-03-01 08:11:00,
2013-03-01 03:16:00,28.4,26.1,29.84,WNW,302,6.0,8.0,91,0.00,,---,0.00,VWS V13.01,2013-03-01 08:16:00,
2013-03-01 03:21:00,28.3,26.0,29.84,NW,306,4.0,9.0,91,0.00,,---,0.00,VWS V13.01,2013-03-01 08:21:00,
2013-03-01 03:26:00,28.3,26.0,29.84,NW,311,6.0,9.0,91,0.00,,---,0.00,VWS V13.01,2013-03-01 08:26:00,
2013-03-01 03:31:00,28.3,26.0,29.85,NW,311,5.0,6.0,91,0.00,,---,0.00,VWS V13.01,2013-03-01 08:31:00,
2013-03-01 03:36:00,28.3,26.0,29.84,NW,312,4.0,6.0,91,0.00,,---,0.00,VWS V13.01,2013-03-01 08:36:00,
2013-03-01 03:41:00,28.3,26.0,29.85,NW,313,5.0,7.0,91,0.00,,---,0.00,VWS V13.01,2013-03-01 08:41:00,
2013-03-01 03:46:00,28.3,26.0,29.85,NW,313,2.0,7.0,91,0.00,,---,0.00,VWS V13.01,2013-03-01 08:46:00,
2013-03-01 03:52:00,28.3,26.0,29.85,NW,313,0.0,7.0,91,0.00,,---,0.00,VWS V13.01,2013-03-01 08:52:00,
2013-03-01 03:57:00,28.3,26.0,29.84,NW,313,3.0,7.0,91,0.00,,---,0.00,VWS V13.01,2013-03-01 08:57:00,
2013-03-01 04:02:00,28.3,26.3,29.85,NW,315,5.0,5.0,92,0.00,,---,0.00,VWS V13.01,2013-03-01 09:02:00,
2013-03-01 04:07:00,28.2,25.9,29.85,NW,323,2.0,6.0,91,0.00,,---,0.00,VWS V13.01,2013-03-01 09:07:00,
2013-03-01 04:12:00,28.2,25.9,29.85,NW,325,1.0,7.0,91,0.00,,---,0.00,VWS V13.01,2013-03-01 09:12:00,
2013-03-01 04:17:00,28.2,25.9,29.84,NW,325,0.0,7.0,91,0.00,,---,0.00,VWS V13.01,2013-03-01 09:17:00,
2013-03-01 04:22:00,28.1,25.8,29.84,NW,317,7.0,8.0,91,0.00,,---,0.00,VWS V13.01,2013-03-01 09:22:00,
2013-03-01 04:27:00,28.1,25.8,29.85,NW,310,6.0,8.0,91,0.00,,---,0.00,VWS V13.01,2013-03-01 09:27:00,
2013-03-01 04:32:00,28.0,25.7,29.85,NW,305,9.0,9.0,91,0.00,,---,0.00,VWS V13.01,2013-03-01 09:32:00,
2013-03-01 04:37:00,27.9,25.6,29.85,NW,304,8.0,18.0,91,0.00,,---,0.00,VWS V13.01,2013-03-01 09:37:00,
2013-03-01 04:43:00,27.8,25.5,29.86,NW,314,10.0,18.0,91,0.00,,---,0.00,VWS V13.01,2013-03-01 09:43:00,
2013-03-01 04:48:00,27.6,25.3,29.86,NW,305,10.0,18.0,91,0.00,,---,0.00,VWS V13.01,2013-03-01 09:48:00,
2013-03-01 04:53:00,27.5,25.2,29.85,WNW,296,7.0,18.0,91,0.00,,---,0.00,VWS V13.01,2013-03-01 09:53:00,
2013-03-01 04:58:00,27.4,25.1,29.86,WNW,294,5.0,18.0,91,0.00,,---,0.00,VWS V13.01,2013-03-01 09:58:00,
2013-03-01 05:03:00,27.4,25.1,29.86,WNW,302,8.0,12.0,91,0.00,,---,0.00,VWS V13.01,2013-03-01 10:03:00,
2013-03-01 05:08:00,27.4,25.4,29.86,WNW,303,5.0,12.0,92,0.00,,---,0.00,VWS V13.01,2013-03-01 10:08:00,
2013-03-01 05:13:00,27.3,25.3,29.86,NW,306,3.0,12.0,92,0.00,,---,0.00,VWS V13.01,2013-03-01 10:13:00,
2013-03-01 05:18:00,27.3,25.3,29.86,NW,306,4.0,12.0,92,0.00,,---,0.00,VWS V13.01,2013-03-01 10:18:00,
2013-03-01 05:23:00,27.2,25.2,29.86,NNW,334,0.0,12.0,92,0.00,,---,0.00,VWS V13.01,2013-03-01 10:23:00,
2013-03-01 05:28:00,27.2,25.2,29.86,NNW,334,0.0,12.0,92,0.00,,---,0.00,VWS V13.01,2013-03-01 10:28:00,
2013-03-01 05:33:00,27.2,25.2,29.86,NNW,332,6.0,7.0,92,0.00,,---,0.00,VWS V13.01,2013-03-01 10:33:00,
2013-03-01 05:39:00,27.1,25.1,29.87,NW,307,6.0,12.0,92,0.00,,---,0.00,VWS V13.01,2013-03-01 10:39:00,
2013-03-01 05:44:00,27.1,24.8,29.87,NW,323,5.0,14.0,91,0.00,,---,0.00,VWS V13.01,2013-03-01 10:44:00,
2013-03-01 05:49:00,27.1,24.8,29.87,NW,323,4.0,14.0,91,0.00,,---,0.00,VWS V13.01,2013-03-01 10:49:00,
2013-03-01 05:54:00,27.0,24.7,29.87,NW,324,1.0,14.0,91,0.00,,---,0.00,VWS V13.01,2013-03-01 10:54:00,
2013-03-01 05:59:00,27.0,24.7,29.87,NW,315,7.0,14.0,91,0.00,,---,0.00,VWS V13.01,2013-03-01 10:59:00,
2013-03-01 06:04:00,26.9,24.6,29.87,NW,314,0.0,9.0,91,0.00,,---,0.00,VWS V13.01,2013-03-01 11:04:00,
2013-03-01 06:10:00,26.9,24.6,29.87,NNW,334,6.0,9.0,91,0.00,,---,0.00,VWS V13.01,2013-03-01 11:10:00,
2013-03-01 06:15:00,26.9,24.6,29.88,NNW,329,0.0,9.0,91,0.00,,---,0.00,VWS V13.01,2013-03-01 11:15:00,
2013-03-01 06:20:00,26.9,24.6,29.88,NNE,12,6.0,10.0,91,0.00,,---,0.00,VWS V13.01,2013-03-01 11:20:00,
2013-03-01 06:25:00,26.8,24.5,29.88,North,11,4.0,10.0,91,0.00,,---,0.00,VWS V13.01,2013-03-01 11:25:00,
2013-03-01 06:30:00,26.8,24.5,29.88,NNE,16,5.0,10.0,91,0.00,,---,0.00,VWS V13.01,2013-03-01 11:30:00,
2013-03-01 06:35:00,26.7,24.4,29.88,NNW,342,6.0,9.0,91,0.00,,---,0.00,VWS V13.01,2013-03-01 11:35:00,
2013-03-01 06:40:00,26.7,24.2,29.88,NNW,345,2.0,10.0,90,0.00,,---,0.00,VWS V13.01,2013-03-01 11:40:00,
2013-03-01 06:45:00,26.6,24.1,29.88,NNW,340,3.0,10.0,90,0.00,,---,0.00,VWS V13.01,2013-03-01 11:45:00,
2013-03-01 06:51:00,26.6,24.1,29.88,North,5,1.0,10.0,90,0.00,,---,0.00,VWS V13.01,2013-03-01 11:51:00,
2013-03-01 06:56:00,26.6,24.3,29.88,North,360,0.0,10.0,91,0.00,,---,0.00,VWS V13.01,2013-03-01 11:56:00,
2013-03-01 07:01:00,26.6,24.3,29.88,NW,319,7.0,10.0,91,0.00,,---,0.00,VWS V13.01,2013-03-01 12:01:00,
2013-03-01 07:06:00,26.5,24.2,29.89,NNW,329,6.0,10.0,91,0.00,,---,0.00,VWS V13.01,2013-03-01 12:06:00,
2013-03-01 07:11:00,26.3,23.8,29.89,NW,314,4.0,10.0,90,0.00,,---,0.00,VWS V13.01,2013-03-01 12:11:00,
2013-03-01 07:16:00,26.2,23.7,29.89,NNW,333,7.0,10.0,90,0.00,,---,0.00,VWS V13.01,2013-03-01 12:16:00,
2013-03-01 07:21:00,26.2,23.7,29.90,NNW,342,5.0,10.0,90,0.00,,---,0.00,VWS V13.01,2013-03-01 12:21:00,
2013-03-01 07:26:00,26.2,23.7,29.90,NNW,330,4.0,10.0,90,0.00,,---,0.00,VWS V13.01,2013-03-01 12:26:00,
2013-03-01 07:31:00,26.1,23.6,29.90,NW,322,2.0,4.0,90,0.00,,---,0.00,VWS V13.01,2013-03-01 12:31:00,
2013-03-01 07:36:00,26.1,23.6,29.91,NW,310,7.0,9.0,90,0.00,,---,0.00,VWS V13.01,2013-03-01 12:36:00,
2013-03-01 07:41:00,26.0,23.5,29.91,NW,315,6.0,9.0,90,0.00,,---,0.00,VWS V13.01,2013-03-01 12:41:00,
2013-03-01 07:46:00,25.9,23.4,29.91,NNE,20,0.0,11.0,90,0.00,,---,0.00,VWS V13.01,2013-03-01 12:46:00,
2013-03-01 07:51:00,26.0,23.7,29.91,NNE,20,0.0,11.0,91,0.00,,---,0.00,VWS V13.01,2013-03-01 12:51:00,
2013-03-01 07:57:00,25.9,23.6,29.91,NNE,18,3.0,11.0,91,0.00,,---,0.00,VWS V13.01,2013-03-01 12:57:00,
2013-03-01 08:02:00,25.9,23.6,29.91,NNW,333,4.0,5.0,91,0.00,,---,0.00,VWS V13.01,2013-03-01 13:02:00,
2013-03-01 08:07:00,25.9,23.6,29.91,NW,308,6.0,8.0,91,0.00,,---,0.00,VWS V13.01,2013-03-01 13:07:00,
2013-03-01 08:12:00,25.8,23.5,29.91,NW,309,8.0,9.0,91,0.00,,---,0.00,VWS V13.01,2013-03-01 13:12:00,
2013-03-01 08:17:00,25.7,23.4,29.91,NW,313,1.0,9.0,91,0.00,,---,0.00,VWS V13.01,2013-03-01 13:17:00,
2013-03-01 08:22:00,25.6,23.3,29.92,NW,311,7.0,9.0,91,0.00,,---,0.00,VWS V13.01,2013-03-01 13:22:00,
2013-03-01 08:27:00,25.6,23.1,29.92,WNW,300,0.0,10.0,90,0.00,,---,0.00,VWS V13.01,2013-03-01 13:27:00,
2013-03-01 08:32:00,25.7,23.2,29.92,WNW,302,5.0,7.0,90,0.00,,---,0.00,VWS V13.01,2013-03-01 13:32:00,
2013-03-01 08:37:00,25.6,23.1,29.92,NW,318,5.0,7.0,90,0.00,,---,0.00,VWS V13.01,2013-03-01 13:37:00,
2013-03-01 08:42:00,25.6,23.1,29.92,NW,318,2.0,7.0,90,0.00,,---,0.00,VWS V13.01,2013-03-01 13:42:00,
2013-03-01 08:47:00,25.7,23.2,29.92,NW,314,0.0,9.0,90,0.00,,---,0.00,VWS V13.01,2013-03-01 13:47:00,
2013-03-01 08:52:00,25.7,23.2,29.93,NNW,336,5.0,9.0,90,0.00,,---,0.00,VWS V13.01,2013-03-01 13:52:00,
2013-03-01 08:57:00,25.7,23.2,29.93,NW,320,4.0,9.0,90,0.00,,---,0.00,VWS V13.01,2013-03-01 13:57:00,
2013-03-01 09:02:00,25.7,23.2,29.93,WNW,302,0.0,12.0,90,0.00,,---,0.00,VWS V13.01,2013-03-01 14:02:00,
2013-03-01 09:07:00,25.7,23.2,29.93,WNW,302,5.0,12.0,90,0.00,,---,0.00,VWS V13.01,2013-03-01 14:07:00,
2013-03-01 09:12:00,25.7,23.2,29.93,WNW,300,5.0,12.0,90,0.00,,---,0.00,VWS V13.01,2013-03-01 14:12:00,
2013-03-01 09:18:00,25.7,23.2,29.93,WNW,298,6.0,12.0,90,0.00,,---,0.00,VWS V13.01,2013-03-01 14:18:00,
2013-03-01 09:23:00,25.7,22.9,29.94,NW,304,8.0,12.0,89,0.00,,---,0.00,VWS V13.01,2013-03-01 14:23:00,
2013-03-01 09:28:00,25.7,22.9,29.94,NW,309,7.0,12.0,89,0.00,,---,0.00,VWS V13.01,2013-03-01 14:28:00,
2013-03-01 09:33:00,25.8,23.0,29.94,NW,304,4.0,11.0,89,0.00,,---,0.00,VWS V13.01,2013-03-01 14:33:00,
2013-03-01 09:38:00,25.9,23.1,29.93,WNW,302,7.0,11.0,89,0.00,,---,0.00,VWS V13.01,2013-03-01 14:38:00,
2013-03-01 09:43:00,26.1,23.3,29.94,WNW,294,5.0,11.0,89,0.00,,---,0.00,VWS V13.01,2013-03-01 14:43:00,
2013-03-01 09:48:00,26.1,23.3,29.94,WNW,293,2.0,11.0,89,0.00,,---,0.00,VWS V13.01,2013-03-01 14:48:00,
2013-03-01 09:53:00,26.2,23.4,29.94,WNW,292,5.0,11.0,89,0.00,,---,0.00,VWS V13.01,2013-03-01 14:53:00,
2013-03-01 09:58:00,26.2,23.1,29.94,WNW,292,5.0,11.0,88,0.00,,---,0.00,VWS V13.01,2013-03-01 14:58:00,
2013-03-01 10:03:00,26.4,23.3,29.94,NNW,335,5.0,7.0,88,0.00,,---,0.00,VWS V13.01,2013-03-01 15:03:00,
2013-03-01 10:08:00,26.5,23.4,29.94,NNW,335,5.0,7.0,88,0.00,,---,0.00,VWS V13.01,2013-03-01 15:08:00,
2013-03-01 10:13:00,26.6,23.5,29.94,NNW,333,3.0,10.0,88,0.00,,---,0.00,VWS V13.01,2013-03-01 15:13:00,
2013-03-01 10:18:00,26.6,23.3,29.94,NNW,333,0.0,10.0,87,0.00,,---,0.00,VWS V13.01,2013-03-01 15:18:00,
2013-03-01 10:23:00,26.7,23.4,29.94,NNW,333,5.0,10.0,87,0.00,,---,0.00,VWS V13.01,2013-03-01 15:23:00,
2013-03-01 10:29:00,26.7,23.4,29.94,NNW,347,0.0,10.0,87,0.00,,---,0.00,VWS V13.01,2013-03-01 15:29:00,
2013-03-01 10:34:00,26.8,23.5,29.94,NNW,342,4.0,5.0,87,0.00,,---,0.00,VWS V13.01,2013-03-01 15:34:00,
2013-03-01 10:39:00,27.0,23.6,29.94,NNW,342,5.0,6.0,87,0.00,,---,0.00,VWS V13.01,2013-03-01 15:39:00,
2013-03-01 10:44:00,27.0,23.4,29.94,North,350,0.0,8.0,86,0.00,,---,0.00,VWS V13.01,2013-03-01 15:44:00,
2013-03-01 10:49:00,27.0,23.4,29.94,WNW,303,4.0,8.0,86,0.00,,---,0.00,VWS V13.01,2013-03-01 15:49:00,
2013-03-01 10:54:00,27.0,23.4,29.94,NW,309,5.0,8.0,86,0.00,,---,0.00,VWS V13.01,2013-03-01 15:54:00,
2013-03-01 10:59:00,26.9,23.3,29.95,NW,311,5.0,8.0,86,0.00,,---,0.00,VWS V13.01,2013-03-01 15:59:00,
2013-03-01 11:04:00,26.9,23.6,29.95,NW,311,0.0,6.0,87,0.00,,---,0.00,VWS V13.01,2013-03-01 16:04:00,
2013-03-01 11:09:00,27.1,23.8,29.95,NW,315,0.0,6.0,87,0.00,,---,0.00,VWS V13.01,2013-03-01 16:09:00,
2013-03-01 11:14:00,27.2,23.6,29.95,NW,325,0.0,6.0,86,0.00,,---,0.00,VWS V13.01,2013-03-01 16:14:00,
2013-03-01 11:19:00,27.1,23.5,29.95,North,9,8.0,8.0,86,0.00,,---,0.00,VWS V13.01,2013-03-01 16:19:00,
2013-03-01 11:24:00,27.1,23.5,29.95,NNE,21,0.0,9.0,86,0.00,,---,0.00,VWS V13.01,2013-03-01 16:24:00,
2013-03-01 11:29:00,27.0,23.1,29.95,North,350,6.0,11.0,85,0.00,,---,0.00,VWS V13.01,2013-03-01 16:29:00,
2013-03-01 11:34:00,27.0,23.1,29.95,NNE,23,4.0,8.0,85,0.00,,---,0.00,VWS V13.01,2013-03-01 16:34:00,
2013-03-01 11:39:00,27.0,23.1,29.95,North,11,5.0,9.0,85,0.00,,---,0.00,VWS V13.01,2013-03-01 16:39:00,
2013-03-01 11:45:00,27.0,23.1,29.95,ENE,59,5.0,9.0,85,0.00,,---,0.00,VWS V13.01,2013-03-01 16:45:00,
2013-03-01 11:50:00,27.0,23.1,29.95,NE,49,5.0,9.0,85,0.00,,---,0.00,VWS V13.01,2013-03-01 16:50:00,
2013-03-01 11:55:00,27.0,23.1,29.95,NE,49,6.0,9.0,85,0.00,,---,0.00,VWS V13.01,2013-03-01 16:55:00,
2013-03-01 12:00:00,27.2,23.3,29.95,NNW,338,9.0,9.0,85,0.00,,---,0.00,VWS V13.01,2013-03-01 17:00:00,
2013-03-01 12:05:00,27.3,23.4,29.95,NNW,343,0.0,7.0,85,0.00,,---,0.00,VWS V13.01,2013-03-01 17:05:00,
2013-03-01 12:10:00,27.4,23.5,29.95,NNW,334,4.0,7.0,85,0.00,,---,0.00,VWS V13.01,2013-03-01 17:10:00,
2013-03-01 12:15:00,27.5,23.6,29.95,NNW,334,0.0,7.0,85,0.00,,---,0.00,VWS V13.01,2013-03-01 17:15:00,
2013-03-01 12:20:00,27.7,23.5,29.95,NNE,17,0.0,8.0,84,0.00,,---,0.00,VWS V13.01,2013-03-01 17:20:00,
2013-03-01 12:25:00,27.6,23.1,29.95,WNW,303,5.0,12.0,83,0.00,,---,0.00,VWS V13.01,2013-03-01 17:25:00,
2013-03-01 12:30:00,27.5,23.0,29.95,NW,304,5.0,5.0,83,0.00,,---,0.00,VWS V13.01,2013-03-01 17:30:00,
2013-03-01 12:35:00,27.6,23.1,29.95,NNW,331,2.0,11.0,83,0.00,,---,0.00,VWS V13.01,2013-03-01 17:35:00,
2013-03-01 12:40:00,27.6,23.1,29.95,NNW,331,0.0,11.0,83,0.00,,---,0.00,VWS V13.01,2013-03-01 17:40:00,
2013-03-01 12:45:00,27.6,23.1,29.95,NNW,331,4.0,11.0,83,0.00,,---,0.00,VWS V13.01,2013-03-01 17:45:00,
2013-03-01 12:51:00,27.7,23.5,29.95,NNW,327,4.0,11.0,84,0.00,,---,0.00,VWS V13.01,2013-03-01 17:51:00,
2013-03-01 12:56:00,27.5,23.3,29.95,NW,325,5.0,11.0,84,0.00,,---,0.00,VWS V13.01,2013-03-01 17:56:00,
2013-03-01 13:01:00,27.2,23.3,29.95,NNW,333,7.0,12.0,85,0.00,,---,0.00,VWS V13.01,2013-03-01 18:01:00,
2013-03-01 13:06:00,27.2,23.0,29.95,NNW,332,0.0,12.0,84,0.00,,---,0.00,VWS V13.01,2013-03-01 18:06:00,
2013-03-01 13:11:00,27.3,23.1,29.95,NW,325,0.0,12.0,84,0.00,,---,0.00,VWS V13.01,2013-03-01 18:11:00,
2013-03-01 13:16:00,27.4,23.2,29.96,NNW,329,4.0,12.0,84,0.00,,---,0.00,VWS V13.01,2013-03-01 18:16:00,
2013-03-01 13:21:00,27.3,23.1,29.96,NNE,22,4.0,12.0,84,0.00,,---,0.00,VWS V13.01,2013-03-01 18:21:00,
2013-03-01 13:26:00,27.3,22.8,29.95,NW,313,8.0,12.0,83,0.00,,---,0.00,VWS V13.01,2013-03-01 18:26:00,
2013-03-01 13:31:00,27.3,23.1,29.96,NW,317,0.0,5.0,84,0.00,,---,0.00,VWS V13.01,2013-03-01 18:31:00,
2013-03-01 13:36:00,27.4,23.2,29.95,NNW,330,0.0,7.0,84,0.00,,---,0.00,VWS V13.01,2013-03-01 18:36:00,
2013-03-01 13:41:00,27.4,23.2,29.95,NW,326,0.0,7.0,84,0.00,,---,0.00,VWS V13.01,2013-03-01 18:41:00,
2013-03-01 13:46:00,27.4,23.2,29.96,North,360,6.0,9.0,84,0.00,,---,0.00,VWS V13.01,2013-03-01 18:46:00,
2013-03-01 13:51:00,27.3,23.1,29.96,NNW,336,14.0,16.0,84,0.00,,---,0.00,VWS V13.01,2013-03-01 18:51:00,
2013-03-01 13:56:00,27.0,22.8,29.96,NNW,330,6.0,16.0,84,0.00,,---,0.00,VWS V13.01,2013-03-01 18:56:00,
2013-03-01 14:01:00,26.8,22.9,29.96,NNW,335,6.0,10.0,85,0.00,,---,0.00,VWS V13.01,2013-03-01 19:01:00,
2013-03-01 14:07:00,26.7,22.8,29.96,North,351,4.0,10.0,85,0.00,,---,0.00,VWS V13.01,2013-03-01 19:07:00,
2013-03-01 14:12:00,26.7,22.8,29.96,NW,319,8.0,10.0,85,0.00,,---,0.00,VWS V13.01,2013-03-01 19:12:00,
2013-03-01 14:17:00,26.5,22.6,29.96,NNW,344,5.0,14.0,85,0.00,,---,0.00,VWS V13.01,2013-03-01 19:17:00,
2013-03-01 14:22:00,26.5,22.6,29.96,WNW,300,7.0,14.0,85,0.00,,---,0.00,VWS V13.01,2013-03-01 19:22:00,
2013-03-01 14:27:00,26.3,22.4,29.96,NW,311,5.0,14.0,85,0.00,,---,0.00,VWS V13.01,2013-03-01 19:27:00,
2013-03-01 14:32:00,26.3,22.4,29.96,NW,318,8.0,11.0,85,0.00,,---,0.00,VWS V13.01,2013-03-01 19:32:00,
2013-03-01 14:37:00,26.2,22.0,29.96,NNW,339,7.0,15.0,84,0.00,,---,0.00,VWS V13.01,2013-03-01 19:37:00,
2013-03-01 14:42:00,26.1,21.9,29.96,NW,325,6.0,16.0,84,0.00,,---,0.00,VWS V13.01,2013-03-01 19:42:00,
2013-03-01 14:47:00,25.9,22.0,29.96,WNW,300,11.0,16.0,85,0.00,,---,0.00,VWS V13.01,2013-03-01 19:47:00,
2013-03-01 14:53:00,25.8,21.9,29.96,NW,319,6.0,16.0,85,0.00,,---,0.00,VWS V13.01,2013-03-01 19:53:00,
2013-03-01 14:58:00,25.8,22.2,29.97,NW,312,8.0,16.0,86,0.00,,---,0.00,VWS V13.01,2013-03-01 19:58:00,
2013-03-01 15:03:00,25.8,21.9,29.96,WNW,299,11.0,15.0,85,0.00,,---,0.00,VWS V13.01,2013-03-01 20:03:00,
2013-03-01 15:08:00,25.8,21.9,29.96,NNW,338,6.0,15.0,85,0.00,,---,0.00,VWS V13.01,2013-03-01 20:08:00,
2013-03-01 15:13:00,25.7,21.5,29.97,NW,311,5.0,15.0,84,0.00,,---,0.00,VWS V13.01,2013-03-01 20:13:00,
2013-03-01 15:18:00,25.8,21.6,29.96,NNE,21,9.0,15.0,84,0.00,,---,0.00,VWS V13.01,2013-03-01 20:18:00,
2013-03-01 15:23:00,25.8,21.6,29.97,NW,317,2.0,15.0,84,0.00,,---,0.00,VWS V13.01,2013-03-01 20:23:00,
2013-03-01 15:28:00,25.7,21.5,29.97,WNW,290,6.0,15.0,84,0.00,,---,0.00,VWS V13.01,2013-03-01 20:28:00,
2013-03-01 15:33:00,25.8,21.9,29.97,NW,321,3.0,6.0,85,0.00,,---,0.00,VWS V13.01,2013-03-01 20:33:00,
2013-03-01 15:38:00,25.9,22.0,29.96,NW,321,1.0,7.0,85,0.00,,---,0.00,VWS V13.01,2013-03-01 20:38:00,
2013-03-01 15:43:00,25.8,21.9,29.96,NNW,337,6.0,10.0,85,0.00,,---,0.00,VWS V13.01,2013-03-01 20:43:00,
2013-03-01 15:48:00,25.8,21.9,29.97,North,360,6.0,10.0,85,0.00,,---,0.00,VWS V13.01,2013-03-01 20:48:00,
2013-03-01 15:53:00,25.7,21.8,29.97,North,355,5.0,10.0,85,0.00,,---,0.00,VWS V13.01,2013-03-01 20:53:00,
2013-03-01 15:59:00,25.5,21.6,29.97,NW,319,8.0,13.0,85,0.00,,---,0.00,VWS V13.01,2013-03-01 20:59:00,
2013-03-01 16:04:00,25.3,21.7,29.98,NW,313,3.0,12.0,86,0.00,,---,0.00,VWS V13.01,2013-03-01 21:04:00,
2013-03-01 16:09:00,25.3,21.7,29.97,North,355,5.0,12.0,86,0.00,,---,0.00,VWS V13.01,2013-03-01 21:09:00,
2013-03-01 16:14:00,25.3,21.4,29.97,NNW,344,0.0,12.0,85,0.00,,---,0.00,VWS V13.01,2013-03-01 21:14:00,
2013-03-01 16:19:00,25.3,21.4,29.97,NNW,340,5.0,12.0,85,0.00,,---,0.00,VWS V13.01,2013-03-01 21:19:00,
2013-03-01 16:24:00,25.2,21.6,29.98,NNW,327,4.0,12.0,86,0.00,,---,0.00,VWS V13.01,2013-03-01 21:24:00,
2013-03-01 16:29:00,25.1,21.5,29.98,NNW,336,4.0,12.0,86,0.00,,---,0.00,VWS V13.01,2013-03-01 21:29:00,
2013-03-01 16:34:00,25.0,21.4,29.98,NNW,336,10.0,12.0,86,0.00,,---,0.00,VWS V13.01,2013-03-01 21:34:00,
2013-03-01 16:39:00,25.0,21.4,29.98,North,360,3.0,12.0,86,0.00,,---,0.00,VWS V13.01,2013-03-01 21:39:00,
2013-03-01 16:44:00,25.0,21.4,29.98,North,11,6.0,12.0,86,0.00,,---,0.00,VWS V13.01,2013-03-01 21:44:00,
2013-03-01 16:49:00,24.9,21.3,29.98,North,360,2.0,12.0,86,0.00,,---,0.00,VWS V13.01,2013-03-01 21:49:00,
2013-03-01 16:55:00,24.9,21.3,29.98,NNW,340,7.0,12.0,86,0.00,,---,0.00,VWS V13.01,2013-03-01 21:55:00,
2013-03-01 17:00:00,24.8,21.5,29.98,North,5,4.0,14.0,87,0.00,,---,0.00,VWS V13.01,2013-03-01 22:00:00,
2013-03-01 17:05:00,24.7,21.1,29.99,NNW,346,6.0,10.0,86,0.00,,---,0.00,VWS V13.01,2013-03-01 22:05:00,
2013-03-01 17:10:00,24.6,21.0,29.99,NW,315,7.0,13.0,86,0.00,,---,0.00,VWS V13.01,2013-03-01 22:10:00,
2013-03-01 17:15:00,24.5,21.2,30.00,NW,326,8.0,13.0,87,0.00,,---,0.00,VWS V13.01,2013-03-01 22:15:00,
2013-03-01 17:20:00,24.3,21.0,30.00,North,351,6.0,13.0,87,0.00,,---,0.00,VWS V13.01,2013-03-01 22:20:00,
2013-03-01 17:25:00,24.2,20.9,30.00,North,5,9.0,13.0,87,0.00,,---,0.00,VWS V13.01,2013-03-01 22:25:00,
2013-03-01 17:30:00,24.2,20.6,30.00,North,360,7.0,9.0,86,0.00,,---,0.00,VWS V13.01,2013-03-01 22:30:00,
2013-03-01 17:36:00,24.0,20.7,30.00,NW,305,10.0,11.0,87,0.00,,---,0.00,VWS V13.01,2013-03-01 22:36:00,
2013-03-01 17:41:00,23.9,20.6,30.00,WNW,300,11.0,11.0,87,0.00,,---,0.00,VWS V13.01,2013-03-01 22:41:00,
2013-03-01 17:46:00,23.8,20.5,30.00,WNW,299,8.0,14.0,87,0.00,,---,0.00,VWS V13.01,2013-03-01 22:46:00,
2013-03-01 17:51:00,23.8,20.5,30.00,WNW,296,7.0,14.0,87,0.00,,---,0.00,VWS V13.01,2013-03-01 22:51:00,
2013-03-01 17:56:00,23.8,20.5,30.01,WNW,295,2.0,14.0,87,0.00,,---,0.00,VWS V13.01,2013-03-01 22:56:00,
2013-03-01 18:01:00,23.8,20.5,30.01,WNW,298,0.0,5.0,87,0.00,,---,0.00,VWS V13.01,2013-03-01 23:01:00,
2013-03-01 18:06:00,23.8,20.5,30.01,WNW,297,8.0,8.0,87,0.00,,---,0.00,VWS V13.01,2013-03-01 23:06:00,
2013-03-01 18:11:00,23.8,20.5,30.01,NW,304,7.0,10.0,87,0.00,,---,0.00,VWS V13.01,2013-03-01 23:11:00,
2013-03-01 18:16:00,23.8,20.5,30.01,WNW,294,5.0,12.0,87,0.00,,---,0.00,VWS V13.01,2013-03-01 23:16:00,
2013-03-01 18:21:00,23.7,20.4,30.01,WNW,295,7.0,12.0,87,0.00,,---,0.00,VWS V13.01,2013-03-01 23:21:00,
2013-03-01 18:26:00,23.8,20.8,30.01,NW,304,4.0,12.0,88,0.00,,---,0.00,VWS V13.01,2013-03-01 23:26:00,
2013-03-01 18:31:00,23.8,20.5,30.01,NW,304,4.0,6.0,87,0.00,,---,0.00,VWS V13.01,2013-03-01 23:31:00,
2013-03-01 18:36:00,23.8,20.5,30.01,NNW,335,1.0,8.0,87,0.00,,---,0.00,VWS V13.01,2013-03-01 23:36:00,
2013-03-01 18:42:00,23.8,20.5,30.01,NW,304,5.0,11.0,87,0.00,,---,0.00,VWS V13.01,2013-03-01 23:42:00,
2013-03-01 18:47:00,23.7,20.4,30.02,NW,321,6.0,11.0,87,0.00,,---,0.00,VWS V13.01,2013-03-01 23:47:00,
2013-03-01 18:52:00,23.6,20.3,30.02,NW,313,6.0,11.0,87,0.00,,---,0.00,VWS V13.01,2013-03-01 23:52:00,
2013-03-01 18:57:00,23.6,20.3,30.02,NNW,340,5.0,11.0,87,0.00,,---,0.00,VWS V13.01,2013-03-01 23:57:00,
2013-03-01 19:02:00,23.5,20.2,30.02,NNE,20,5.0,6.0,87,0.00,,---,0.00,VWS V13.01,2013-03-02 00:02:00,
2013-03-01 19:07:00,23.5,20.2,30.02,NNW,338,0.0,8.0,87,0.00,,---,0.00,VWS V13.01,2013-03-02 00:07:00,
2013-03-01 19:13:00,23.5,20.2,30.03,NNW,338,0.0,8.0,87,0.00,,---,0.00,VWS V13.01,2013-03-02 00:13:00,
2013-03-01 19:18:00,23.5,20.2,30.03,NNW,341,2.0,8.0,87,0.00,,---,0.00,VWS V13.01,2013-03-02 00:18:00,
2013-03-01 19:23:00,23.5,20.2,30.03,NNW,329,4.0,8.0,87,0.00,,---,0.00,VWS V13.01,2013-03-02 00:23:00,
2013-03-01 19:28:00,23.4,20.1,30.03,NW,315,5.0,8.0,87,0.00,,---,0.00,VWS V13.01,2013-03-02 00:28:00,
2013-03-01 19:33:00,23.4,20.1,30.03,WNW,302,11.0,11.0,87,0.00,,---,0.00,VWS V13.01,2013-03-02 00:33:00,
2013-03-01 19:38:00,23.3,20.0,30.03,NW,309,10.0,13.0,87,0.00,,---,0.00,VWS V13.01,2013-03-02 00:38:00,
2013-03-01 19:43:00,23.3,20.0,30.03,NW,310,9.0,13.0,87,0.00,,---,0.00,VWS V13.01,2013-03-02 00:43:00,
2013-03-01 19:48:00,23.3,20.0,30.03,NW,304,8.0,13.0,87,0.00,,---,0.00,VWS V13.01,2013-03-02 00:48:00,
2013-03-01 19:53:00,23.3,20.0,30.03,NW,305,7.0,13.0,87,0.00,,---,0.00,VWS V13.01,2013-03-02 00:53:00,
2013-03-01 19:58:00,23.3,20.0,30.03,WNW,300,7.0,13.0,87,0.00,,---,0.00,VWS V13.01,2013-03-02 00:58:00,
2013-03-01 20:03:00,23.2,19.9,30.03,WNW,300,5.0,9.0,87,0.00,,---,0.00,VWS V13.01,2013-03-02 01:03:00,
2013-03-01 20:08:00,23.2,19.9,30.04,WNW,299,5.0,9.0,87,0.00,,---,0.00,VWS V13.01,2013-03-02 01:08:00,
2013-03-01 20:14:00,23.3,20.0,30.03,WNW,294,8.0,9.0,87,0.00,,---,0.00,VWS V13.01,2013-03-02 01:14:00,
2013-03-01 20:19:00,23.3,20.0,30.03,WNW,294,6.0,10.0,87,0.00,,---,0.00,VWS V13.01,2013-03-02 01:19:00,
2013-03-01 20:24:00,23.3,20.0,30.03,WNW,294,4.0,10.0,87,0.00,,---,0.00,VWS V13.01,2013-03-02 01:24:00,
2013-03-01 20:29:00,23.3,20.0,30.03,WNW,294,5.0,10.0,87,0.00,,---,0.00,VWS V13.01,2013-03-02 01:29:00,
2013-03-01 20:34:00,23.3,20.0,30.03,WNW,294,5.0,8.0,87,0.00,,---,0.00,VWS V13.01,2013-03-02 01:34:00,
2013-03-01 20:39:00,23.4,20.1,30.03,WNW,294,5.0,8.0,87,0.00,,---,0.00,VWS V13.01,2013-03-02 01:39:00,
2013-03-01 20:44:00,23.4,20.1,30.03,WNW,294,6.0,8.0,87,0.00,,---,0.00,VWS V13.01,2013-03-02 01:44:00,
2013-03-01 20:49:00,23.4,20.1,30.03,WNW,294,4.0,8.0,87,0.00,,---,0.00,VWS V13.01,2013-03-02 01:49:00,
2013-03-01 20:54:00,23.4,20.1,30.03,WNW,294,5.0,8.0,87,0.00,,---,0.00,VWS V13.01,2013-03-02 01:54:00,
2013-03-01 20:59:00,23.3,20.0,30.04,WNW,294,4.0,8.0,87,0.00,,---,0.00,VWS V13.01,2013-03-02 01:59:00,
2013-03-01 21:04:00,23.4,20.1,30.04,WNW,294,2.0,5.0,87,0.00,,---,0.00,VWS V13.01,2013-03-02 02:04:00,
2013-03-01 21:10:00,23.4,20.1,30.04,WNW,294,2.0,6.0,87,0.00,,---,0.00,VWS V13.01,2013-03-02 02:10:00,
2013-03-01 21:15:00,23.5,20.2,30.04,WNW,294,4.0,6.0,87,0.00,,---,0.00,VWS V13.01,2013-03-02 02:15:00,
2013-03-01 21:20:00,23.5,20.2,30.04,WNW,294,2.0,6.0,87,0.00,,---,0.00,VWS V13.01,2013-03-02 02:20:00,
2013-03-01 21:25:00,23.5,20.2,30.04,WNW,294,4.0,6.0,87,0.00,,---,0.00,VWS V13.01,2013-03-02 02:25:00,
2013-03-01 21:30:00,23.5,20.2,30.05,WNW,294,0.0,6.0,87,0.00,,---,0.00,VWS V13.01,2013-03-02 02:30:00,
2013-03-01 21:35:00,23.5,20.2,30.04,WNW,294,0.0,1.0,87,0.00,,---,0.00,VWS V13.01,2013-03-02 02:35:00,
2013-03-01 21:40:00,23.5,20.2,30.04,WNW,294,2.0,4.0,87,0.00,,---,0.00,VWS V13.01,2013-03-02 02:40:00,
2013-03-01 21:45:00,23.5,20.2,30.04,WNW,294,5.0,6.0,87,0.00,,---,0.00,VWS V13.01,2013-03-02 02:45:00,
2013-03-01 21:51:00,23.6,20.6,30.04,WNW,294,6.0,6.0,88,0.00,,---,0.00,VWS V13.01,2013-03-02 02:51:00,
2013-03-01 21:56:00,23.6,20.6,30.04,WNW,294,5.0,7.0,88,0.00,,---,0.00,VWS V13.01,2013-03-02 02:56:00,
2013-03-01 22:01:00,23.6,20.6,30.04,WNW,294,2.0,4.0,88,0.00,,---,0.00,VWS V13.01,2013-03-02 03:01:00,
2013-03-01 22:06:00,23.6,20.6,30.04,WNW,294,4.0,5.0,88,0.00,,---,0.00,VWS V13.01,2013-03-02 03:06:00,
2013-03-01 22:11:00,23.6,20.6,30.03,WNW,294,4.0,5.0,88,0.00,,---,0.00,VWS V13.01,2013-03-02 03:11:00,
2013-03-01 22:16:00,23.6,20.6,30.04,WNW,294,0.0,5.0,88,0.00,,---,0.00,VWS V13.01,2013-03-02 03:16:00,
2013-03-01 22:21:00,23.6,20.6,30.03,WNW,294,0.0,5.0,88,0.00,,---,0.00,VWS V13.01,2013-03-02 03:21:00,
2013-03-01 22:26:00,23.6,20.6,30.04,WNW,294,0.0,5.0,88,0.00,,---,0.00,VWS V13.01,2013-03-02 03:26:00,
2013-03-01 22:31:00,23.6,20.6,30.03,WNW,294,0.0,4.0,88,0.00,,---,0.00,VWS V13.01,2013-03-02 03:31:00,
2013-03-01 22:36:00,23.6,20.6,30.03,WNW,294,0.0,4.0,88,0.00,,---,0.00,VWS V13.01,2013-03-02 03:36:00,
2013-03-01 22:41:00,23.7,20.7,30.03,WNW,294,0.0,4.0,88,0.00,,---,0.00,VWS V13.01,2013-03-02 03:41:00,
2013-03-01 22:47:00,23.6,20.6,30.03,WNW,294,0.0,4.0,88,0.00,,---,0.00,VWS V13.01,2013-03-02 03:47:00,
2013-03-01 22:52:00,23.6,20.6,30.03,WNW,294,0.0,4.0,88,0.00,,---,0.00,VWS V13.01,2013-03-02 03:52:00,
2013-03-01 22:57:00,23.6,20.6,30.03,WNW,294,0.0,4.0,88,0.00,,---,0.00,VWS V13.01,2013-03-02 03:57:00,
2013-03-01 23:02:00,23.7,20.7,30.03,WNW,294,0.0,0.0,88,0.00,,---,0.00,VWS V13.01,2013-03-02 04:02:00,
2013-03-01 23:07:00,23.7,20.7,30.03,WNW,294,2.0,2.0,88,0.00,,---,0.00,VWS V13.01,2013-03-02 04:07:00,
2013-03-01 23:12:00,23.8,20.8,30.03,WNW,294,4.0,6.0,88,0.00,,---,0.00,VWS V13.01,2013-03-02 04:12:00,
2013-03-01 23:17:00,23.8,20.8,30.03,WNW,294,0.0,6.0,88,0.00,,---,0.00,VWS V13.01,2013-03-02 04:17:00,
2013-03-01 23:22:00,23.8,20.8,30.03,WNW,294,2.0,6.0,88,0.00,,---,0.00,VWS V13.01,2013-03-02 04:22:00,
2013-03-01 23:27:00,23.9,20.9,30.03,WNW,294,3.0,7.0,88,0.00,,---,0.00,VWS V13.01,2013-03-02 04:27:00,
2013-03-01 23:32:00,23.9,20.9,30.03,NW,310,6.0,9.0,88,0.00,,---,0.00,VWS V13.01,2013-03-02 04:32:00,
2013-03-01 23:37:00,23.9,20.6,30.03,NNW,327,7.0,10.0,87,0.00,,---,0.00,VWS V13.01,2013-03-02 04:37:00,
2013-03-01 23:43:00,23.9,20.6,30.03,North,355,7.0,10.0,87,0.00,,---,0.00,VWS V13.01,2013-03-02 04:43:00,
2013-03-01 23:48:00,23.8,20.5,30.03,West,276,5.0,11.0,87,0.00,,---,0.00,VWS V13.01,2013-03-02 04:48:00,
2013-03-01 23:53:00,23.8,20.5,30.03,WNW,295,5.0,11.0,87,0.00,,---,0.00,VWS V13.01,2013-03-02 04:53:00,
2013-03-01 23:58:00,23.7,20.7,30.03,NW,305,7.0,15.0,88,0.00,,---,0.00,VWS V13.01,2013-03-02 04:58:00,